37P/Forbes (2024)

Japanese version
Home page
Updated on April 4, 2021

---------------------------------------------------------------------

* Profile

* Orbital Elements

Epoch 2024 Oct. 17.0 TT = JDT 2460600.5                                         
T 2024 Oct. 11.26834 TT                                 Rudenko                 
q   1.6178255            (2000.0)            P               Q                  
n   0.15295816     Peri.  330.06575     +0.25665899     +0.96012544             
a   3.4627485      Node   314.54977     -0.85301242     +0.17110765             
e   0.5327915      Incl.    8.94770     -0.45441828     +0.22109120             
P   6.44                                                                        
From 1932 observations 1948 Sept. 27-2018 Dec. 14, mean residual 0".9.          
     Nongravitational parameters A1 = +0.71, A2 = -0.0281.                      

* Finding Charts

* Magnitudes Graph

        m1 = 7.2 + 5 log d + 25 log r

---------------------------------------------------------------------

The orbital elements are published on M.P.E.C. 2021-F20.
The charts are made with StellaNavigator Ver.10 (AstroArts).
The magnitudes graphs are made with Comet for Windows.

---------------------------------------------------------------------

Copyright(C) Seiichi Yoshida (comet@aerith.net). All rights reserved.